Theta_e
299 294 292 293 295 294 293 293 293 295 296 296 296 296 300 304 304 303 302 303 303 303 304 304 304 305 307 309 308 307 306 308 309 309 310 311 312 313 314 312 311 311 311 311
295 290 295 297 296 295 293 291 292 295 296 296 296 296 300 300 299 300 300 300 301 303 303 302 303 304 305 306 307 306 307 308 309 310 311 312 313 313 312 312 311 311 311 312
290 292 296 294 293 292 293 291 291 291 294 295 294 298 298 298 299 299 298 300 300 300 300 301 301 302 304 305 306 306 307 308 308 308 310 311 312 313 311 311 310 311 310 311
292 294 292 292 291 293 289 294 293 291 293 292 294 294 293 296 297 295 295 297 299 299 300 300 300 301 303 304 306 307 307 307 308 308 309 309 311 309 310 311 310 311 310 311
290 291 291 290 291 293 291 294 294 293 292 292 291 292 296 294 293 291 293 294 296 298 298 297 298 300 302 305 306 307 307 307 308 308 309 311 309 310 310 309 309 310 311 312
291 294 294 294 293 294 294 293 292 292 291 287 288 289 294 288 286 289 291 292 293 295 297 298 298 301 302 304 306 307 306 306 307 307 308 309 309 308 307 309 310 311 312 313
288 289 293 294 292 294 292 291 286 285 285 286 285 286 290 286 288 288 288 290 291 293 295 296 298 300 302 303 304 304 305 305 306 306 307 307 308 308 307 309 310 310 312 313
283 280 290 294 293 292 291 291 288 282 281 284 285 284 288 288 289 289 289 290 290 290 292 294 296 298 300 301 303 304 304 304 305 306 306 307 307 310 310 310 311 312 313 315
283 283 291 291 293 294 291 288 290 283 279 283 287 287 286 289 288 287 287 288 287 288 290 290 292 293 295 297 299 301 302 303 304 304 306 306 307 307 309 309 309 312 313 314
290 284 288 290 292 292 292 293 286 287 279 278 282 283 286 286 284 285 284 285 286 287 287 288 289 290 291 292 294 296 297 299 302 303 305 305 306 307 308 309 308 309 310 311
293 290 285 289 288 288 288 287 287 289 285 279 278 283 286 284 284 284 284 285 285 286 286 287 288 288 289 290 290 292 293 294 295 297 302 303 305 306 306 307 308 309 308 309
295 290 284 285 289 290 289 289 289 284 280 282 282 283 285 285 284 284 283 284 285 285 286 287 287 287 287 287 288 289 290 291 292 295 297 301 303 304 305 306 307 308 309 310
294 286 284 284 288 289 287 288 288 287 287 282 282 283 285 284 284 283 283 284 284 284 285 286 286 286 286 286 287 287 288 288 290 293 296 298 299 301 303 304 305 307 307 309
295 288 285 284 285 288 284 286 287 288 285 285 285 282 282 283 283 283 283 284 284 284 284 284 285 285 285 285 285 286 286 287 287 289 289 289 291 294 298 301 302 304 306 305
289 284 286 287 287 287 285 285 285 286 288 284 286 284 285 284 283 282 283 283 283 282 283 283 283 283 284 284 284 285 286 286 286 286 286 286 287 289 291 292 295 299 302 304
289 283 285 282 286 285 284 285 286 286 286 287 286 280 284 284 284 283 282 282 282 282 282 282 282 282 282 282 282 283 284 284 285 285 285 285 286 286 287 288 290 293 296 299
284 285 283 280 283 284 281 281 282 282 281 282 284 282 283 282 281 282 282 281 281 281 280 280 280 280 281 280 280 281 282 283 283 283 283 283 284 285 285 286 287 288 289 292
281 282 282 280 279 275 279 282 282 280 279 281 281 281 282 283 282 282 283 281 280 280 279 279 279 279 280 279 279 280 281 280 280 279 279 281 282 283 284 285 285 286 287 288
283 282 277 277 277 277 279 280 280 279 277 280 279 280 281 282 282 280 282 282 280 279 279 279 279 279 278 277 278 279 278 278 277 277 277 278 279 280 281 282 283 284 285 285
282 283 279 277 274 273 277 279 282 281 277 280 280 279 281 282 278 279 281 280 279 279 278 277 278 278 277 276 277 277 276 276 275 275 276 278 278 278 279 280 281 282 284 285
276 277 275 275 275 276 278 280 282 275 276 280 280 280 279 280 280 281 280 279 278 278 277 277 276 276 276 276 276 275 275 274 275 275 276 276 277 277 279 279 280 281 281 283
273 273 273 272 273 272 280 280 278 279 281 281 281 281 279 280 279 279 278 278 277 276 276 275 274 274 275 275 274 274 274 274 275 274 274 274 275 276 278 277 279 279 280 280
271 275 276 275 277 277 280 280 280 282 281 281 281 281 280 279 278 277 277 277 276 276 275 274 273 273 274 274 273 272 273 273 272 270 271 272 274 275 276 276 277 277 278 279
272 273 273 273 274 276 279 280 282 282 282 282 282 281 280 278 277 277 277 276 275 275 274 273 272 272 272 272 271 271 271 270 268 267 268 270 272 272 274 275 275 276 277 277
273 274 272 272 273 276 277 280 282 282 282 281 280 280 279 278 277 276 276 275 274 273 272 271 270 270 270 270 269 269 268 266 265 266 267 269 270 270 271 272 273 274 276 276
273 273 272 272 276 277 278 282 283 281 281 281 279 276 276 276 276 275 274 274 272 271 270 269 269 268 268 267 266 266 265 264 263 264 266 267 267 268 269 270 271 274 275 275
Wind_Speed
3 7 13 12 8 1 3 1 1 2 1 4 4 12 15 16 10 11 12 11 10 10 8 9 7 3 6 9 12 12 13 11 7 4 2 2 1 1 1 2 2 2 2 2
6 13 8 6 6 8 2 2 2 1 2 4 7 18 11 8 9 14 15 15 14 14 12 10 8 5 5 8 10 11 10 9 5 3 2 1 1 1 2 2 2 2 1 1
8 1 12 9 9 10 9 9 4 3 3 1 8 6 3 5 9 13 16 15 15 15 15 11 9 6 7 9 10 10 9 7 4 3 3 2 2 1 2 2 1 1 1 0
4 4 11 11 7 10 9 8 6 2 2 3 5 5 5 3 8 16 18 18 17 17 15 11 8 7 7 9 9 9 8 6 5 2 1 2 2 1 1 1 1 1 0 1
4 6 11 6 6 8 0 4 5 3 3 3 2 3 2 4 4 16 18 18 18 17 14 12 9 7 8 7 7 7 7 6 4 2 1 1 2 1 2 0 2 1 2 2
3 2 1 2 3 6 10 6 5 3 1 4 2 3 0 4 7 10 14 15 17 18 16 12 8 7 9 7 7 6 6 5 4 2 1 2 2 1 1 2 2 2 2 2
1 1 0 2 6 4 2 7 3 3 4 3 2 4 3 4 6 9 12 14 15 16 16 14 12 9 8 8 7 5 5 5 5 4 3 3 3 3 3 2 2 3 2 3
9 6 8 5 2 6 8 4 4 5 4 3 2 6 2 7 7 7 9 11 14 16 15 15 14 12 11 10 9 8 7 6 5 5 5 4 4 3 3 3 3 2 2 3
7 3 2 0 2 3 7 6 2 6 2 2 4 3 6 7 10 11 12 14 15 15 15 16 15 14 13 13 12 11 10 8 7 6 5 5 5 4 4 4 3 3 3 3
3 5 0 1 2 2 4 7 4 1 6 6 3 3 2 5 8 10 13 14 14 14 14 14 14 14 13 13 12 13 12 11 10 8 6 5 6 6 5 4 4 4 4 4
2 0 2 2 7 9 4 4 1 1 2 3 4 3 5 5 5 7 10 11 12 13 14 13 13 13 13 13 14 13 13 13 12 12 9 6 6 6 5 5 5 5 4 5
3 2 4 3 1 2 1 3 6 4 5 1 2 3 4 6 6 6 8 9 11 12 12 12 13 14 14 15 14 14 14 14 13 12 11 8 7 7 7 6 6 6 7 5
7 3 5 2 2 1 4 4 2 3 2 6 5 3 5 6 6 6 7 9 9 12 13 13 13 14 14 15 14 14 15 15 15 14 12 11 10 9 9 8 8 7 7 7
4 2 2 3 3 2 4 4 4 8 4 5 8 7 10 7 6 5 7 7 9 10 11 12 13 13 14 14 14 14 15 15 15 14 14 14 14 14 12 11 10 9 8 8
3 2 2 3 3 3 2 2 2 10 9 8 3 4 11 7 6 5 5 5 7 10 11 11 11 11 12 13 14 14 14 14 14 14 14 15 14 14 14 13 13 11 10 9
3 3 2 3 4 2 2 1 2 0 2 3 4 5 5 7 7 5 5 6 8 9 9 10 11 12 12 13 13 12 13 13 13 13 14 14 15 14 14 15 14 13 12 11
2 2 1 3 3 3 3 1 1 3 5 3 4 5 8 6 6 6 6 6 7 9 11 12 12 11 12 12 12 12 12 12 12 13 13 14 15 15 15 15 14 14 14 13
2 2 2 3 1 4 4 2 1 7 5 6 8 7 5 7 8 7 6 5 5 6 7 8 9 9 10 11 11 11 11 12 12 13 14 14 14 14 15 15 15 14 13 14
5 2 4 2 1 2 4 3 2 3 4 1 5 5 4 10 9 7 5 5 5 5 5 6 6 7 9 11 12 11 11 12 13 15 15 15 15 14 14 14 15 14 13 12
3 3 1 3 4 7 4 3 2 1 3 6 5 5 5 11 4 4 3 3 3 4 4 5 6 5 7 9 10 9 10 12 14 15 15 14 14 14 14 14 14 12 12 11
3 1 3 5 4 3 2 5 5 4 3 8 5 5 4 4 3 5 3 2 2 3 3 4 5 5 6 8 9 9 9 11 11 12 13 13 13 13 12 13 12 11 12 11
5 6 4 3 3 7 6 6 4 4 7 8 6 5 5 5 4 3 1 1 1 2 2 4 5 5 6 8 9 10 10 11 12 13 13 13 13 11 10 13 11 11 11 11
4 3 0 5 0 1 2 1 3 5 7 6 7 5 4 4 3 1 1 2 2 1 1 3 5 5 6 7 8 10 11 13 13 14 13 13 13 12 11 12 12 11 10 9
4 4 3 1 4 5 4 3 4 5 6 7 5 7 6 4 3 2 3 3 2 1 3 4 6 7 8 8 9 10 12 13 11 13 14 13 12 14 12 10 10 9 9 9
1 8 4 4 4 2 6 9 10 9 7 6 5 6 6 6 5 4 4 4 4 3 3 4 6 7 9 9 10 11 11 12 12 13 13 13 11 12 13 11 11 10 11 11
9 8 7 6 6 3 2 14 11 9 10 9 8 5 5 6 5 4 4 4 4 3 3 5 6 8 10 11 11 11 8 9 10 12 10 10 11 11 11 12 12 16 21 24
Wind_Direction
101 192 205 191 199 322 125 212 207 118 57 275 267 289 288 299 350 6 2 350 358 12 2 5 14 70 136 150 152 150 146 142 146 150 178 197 172 118 67 43 54 72 74 89
148 223 193 173 183 217 162 143 270 299 349 306 316 296 297 23 61 49 27 21 11 4 8 18 27 63 105 130 132 139 137 141 141 144 131 354 158 112 71 59 82 82 75 84
170 140 170 163 184 205 224 229 189 249 306 156 300 279 31 75 100 46 32 24 18 12 0 9 27 52 104 115 125 127 127 126 114 101 117 130 157 156 151 105 126 91 45 223
228 129 157 178 181 198 230 217 186 216 228 278 333 290 311 18 120 31 16 16 13 9 9 16 28 58 84 99 107 111 111 109 106 118 154 288 317 12 78 89 67 122 168 249
163 162 150 177 207 184 165 145 140 123 162 294 184 250 226 17 4 5 6 6 8 8 9 14 37 59 75 88 94 95 99 91 95 102 61 322 320 72 74 212 169 193 189 241
82 355 173 98 65 186 141 100 72 78 161 234 142 247 300 12 338 338 356 7 8 8 11 23 39 71 84 80 74 76 79 74 75 37 32 352 307 310 208 194 175 201 211 210
140 132 312 160 107 84 252 168 140 183 193 242 35 224 11 77 22 2 356 7 12 14 20 22 34 43 50 52 56 55 53 52 19 3 352 329 331 286 257 262 217 198 218 224
168 187 187 169 201 191 196 249 219 207 193 146 124 227 113 94 63 39 29 27 27 23 23 30 29 30 30 24 21 18 16 23 9 347 341 315 299 303 292 290 282 264 252 263
170 133 46 343 136 192 168 217 56 109 61 275 184 127 144 138 53 36 31 34 28 26 25 28 26 27 27 23 17 8 3 1 360 353 340 327 314 304 305 300 283 299 303 295
138 122 68 85 165 78 256 148 149 271 172 211 189 248 112 189 25 27 28 27 24 26 29 28 26 24 23 23 17 16 12 3 350 349 344 334 318 304 301 294 270 278 292 291
162 1 105 172 208 178 157 194 109 196 260 189 170 147 10 83 58 43 37 31 25 26 28 28 28 26 25 23 22 15 13 6 0 348 339 335 321 308 299 288 288 281 292 285
156 47 162 184 36 348 5 220 191 198 185 281 335 134 100 99 78 57 51 39 32 32 33 30 30 28 26 26 20 15 11 10 359 347 337 336 330 322 308 299 293 285 278 274
161 180 144 160 213 135 217 189 181 87 85 193 180 136 149 125 90 69 62 47 38 32 29 30 30 29 25 22 16 16 12 11 2 2 1 2 358 344 330 320 308 296 288 284
76 153 276 243 61 64 168 195 206 217 225 227 240 141 188 166 114 77 63 54 45 37 31 25 22 20 22 18 13 12 13 13 7 10 13 11 4 355 346 335 325 314 302 290
68 103 132 73 99 61 70 71 205 223 242 239 153 94 162 150 123 89 63 48 39 32 26 23 17 14 16 12 8 7 9 11 6 14 15 9 2 359 355 350 342 332 318 302
1 102 112 75 60 76 140 48 227 312 351 279 149 110 130 119 117 98 62 45 41 34 26 18 14 11 12 7 2 359 2 5 3 10 13 8 3 2 0 353 346 342 337 326
32 94 63 107 19 142 200 29 333 103 49 342 226 82 152 141 116 91 87 65 41 18 7 7 7 7 6 3 357 356 357 0 6 6 7 6 2 0 358 353 351 350 344 336
79 80 49 116 13 226 77 39 29 104 76 91 98 103 100 120 110 100 72 65 53 23 11 6 1 5 10 5 3 356 3 4 5 8 7 5 0 356 353 350 350 348 347 340
33 58 98 155 193 7 195 192 178 201 134 124 126 117 115 137 133 100 67 59 46 26 17 12 6 7 7 6 358 1 7 7 8 7 2 358 356 350 350 348 343 340 337 337
70 39 67 177 190 217 82 141 123 158 219 165 149 114 105 154 205 108 82 65 52 45 36 18 9 15 13 8 358 4 6 3 3 357 350 348 348 346 345 342 335 331 328 323
108 134 194 186 230 292 127 134 151 187 116 159 152 129 126 180 47 111 125 112 79 61 46 25 15 15 12 3 355 2 358 1 349 343 337 338 339 335 334 331 325 324 324 324
183 161 180 138 208 242 154 128 212 107 127 147 148 150 142 144 157 154 148 131 118 75 47 23 4 0 1 0 353 350 351 343 339 337 329 328 327 325 323 324 320 322 325 324
220 247 209 223 72 137 192 269 139 156 149 164 168 167 169 171 181 214 219 188 170 110 27 6 347 333 341 350 348 334 337 334 333 328 322 320 319 316 320 317 318 316 320 319
213 191 230 266 186 221 207 186 174 173 152 157 160 166 178 187 190 236 232 218 241 315 334 343 333 330 328 340 337 331 332 333 326 316 316 316 316 318 317 313 310 308 306 311
206 160 180 259 229 258 232 214 188 179 160 156 152 179 193 193 212 220 222 220 228 259 298 324 318 312 313 326 325 327 333 331 321 319 317 317 317 317 313 309 306 303 298 300
190 180 186 211 184 181 186 193 192 188 195 189 178 185 198 209 230 219 237 227 234 266 317 312 312 311 318 325 321 320 321 321 318 315 316 319 313 315 311 309 305 297 299 301